This demonstration page uses our WeatherBlox Daily Observations layout. Learn more.

Left ArrowRight Arrow

39.12711, -84.51439

Hourly Observations for October 31, 2018

Temp ( °F °C ) Dew Point ( °F °C ) Humidity (%) Winds ( mph kmh ) Pressure ( in mb ) Visibility ( mi km ) Precip ( " mm )
12:53 am 00:53 Mostly Cloudy 57 13.9 48 8.9 72 72 S 9 15 29.96 1015 10 16 N/A
1:53 am 01:53 Mostly Cloudy 58 14.4 51 10.6 78 78 S 10 17 29.96 1014 10 16 N/A
2:53 am 02:53 Mostly Cloudy 61 16.1 53 11.7 75 75 S 10 17 29.95 1014 10 16 N/A
3:53 am 03:53 Mostly Cloudy 62 16.7 54 12.2 75 75 SSW 17 28 29.93 1014 10 16 N/A
4:53 am 04:53 Cloudy 63 17.2 54 12.2 73 73 SSW 15 24 29.92 1013 10 16 N/A
5:53 am 05:53 Cloudy 63 17.2 55 12.8 76 76 SSW 15 24 29.92 1013 10 16 N/A
6:53 am 06:53 Mostly Cloudy 62 16.7 55 12.8 78 78 SSW 14 22 29.91 1013 10 16 N/A
7:53 am 07:53 Cloudy 63 17.2 56 13.3 78 78 SSW 15 24 29.91 1013 10 16 N/A
8:53 am 08:53 Mostly Cloudy 63 17.2 56 13.3 78 78 SSW 16 26 29.91 1013 10 16 N/A
9:53 am 09:53 Mostly Cloudy 65 18.3 57 13.9 76 76 SSW 20 31 29.90 1013 10 16 N/A
10:53 am 10:53 Mostly Cloudy 68 20 59 15 73 73 SSW 16 26 29.89 1012 10 16 N/A
11:35 am 11:35 Cloudy with Heavy Rain 66 18.9 59 15 78 78 SW 14 22 29.91 1013 3 4 0.04 1.02
11:45 am 11:45 Cloudy with Heavy Rain 64 17.8 61 16.1 90 90 SW 10 17 29.91 1013 2 3 0.09 2.29
11:49 am 11:49 Cloudy with Light Rain 64 18 61 16 88 88 SW 9 15 29.91 1013 4 6 0.09 2.29
11:53 am 11:53 Cloudy with Rain 63 17.2 61 16.1 93 93 SW 8 13 29.91 1013 4 6 0.10 2.54
12:07 pm 12:07 Cloudy with Light Rain 63 17.2 62 16.7 97 97 SW 6 9 29.91 1013 5 8 0.01 0.25
12:22 pm 12:22 Cloudy with Rain 64 17.8 62 16.7 93 93 SSW 13 20 29.91 1013 3 5 0.02 0.51
12:53 pm 12:53 Cloudy with Rain 63 17.2 62 16.7 97 97 SSW 9 15 29.91 1013 3 5 0.05 1.27
1:04 pm 13:04 Cloudy with Rain 63 17.2 62 16.7 97 97 SSW 9 15 29.91 1013 2 3 0.02 0.51
1:21 pm 13:21 Cloudy with Light Rain 63 17.2 63 17.2 100 100 SSW 7 11 29.91 1013 4 6 0.03 0.76
1:53 pm 13:53 Cloudy with Light Rain 63 17.2 63 17.2 100 100 SSW 12 19 29.89 1012 4 6 0.05 1.27
2:53 pm 14:53 Cloudy with Light Rain 64 17.8 63 17.2 96 96 SSW 12 19 29.88 1012 10 16 N/A
3:53 pm 15:53 Cloudy with Light Rain 65 18.3 64 17.8 97 97 SSW 10 17 29.86 1011 8 13 0.05 1.27
4:33 pm 16:33 Cloudy 65 18.3 64 17.8 97 97 SW 6 9 29.88 1012 10 16 N/A
4:53 pm 16:53 Cloudy with Light Rain 65 18.3 64 17.8 97 97 SSW 8 13 29.86 1011 10 16 N/A
5:53 pm 17:53 Cloudy with Light Rain 64 17.8 64 17.8 100 100 SSW 3 6 29.87 1011 7 11 N/A
6:53 pm 18:53 Cloudy with Rain 63 17.2 63 17.2 100 100 N N/A 29.88 1012 4 6 0.02 0.51
7:53 pm 19:53 Cloudy with Light Rain 63 17.2 63 17.2 100 100 SSW 6 9 29.89 1012 8 13 0.05 1.27
8:00 pm 20:00 Cloudy with Rain 63 17.2 63 17.2 100 100 SSW 5 7 29.88 1012 5 8 0.01 0.25
8:20 pm 20:20 Cloudy with Light Rain 63 17.2 63 17.2 100 100 SW 5 7 29.91 1013 4 6 0.03 0.76
8:53 pm 20:53 Cloudy with Light Rain 63 17.2 63 17.2 100 100 NNW 5 7 29.88 1012 7 11 0.03 0.76
9:07 pm 21:07 Cloudy with Light Rain 61 16.1 60 15.6 97 97 NW 6 9 29.88 1012 10 16 N/A
9:53 pm 21:53 Cloudy with Light Rain 58 14.4 58 14.4 100 100 N 8 13 29.89 1012 10 16 0.02 0.51
10:53 pm 22:53 Cloudy with Light Rain 58 14.4 58 14.4 100 100 NNE 3 6 29.89 1012 9 14 0.01 0.25
11:53 pm 23:53 Cloudy with Light Rain 57 13.9 57 13.9 100 100 N N/A 29.86 1011 10 16 0.02 0.51

Powered by AerisWeather